Weather in Tournai

Belgium     50°36′19″N   3°23′17″E
temp.,
°C
wind,
m/s
gust,
m/s
humid.,
%
clouds,
%
prec.,
mm/h
press.,
hPa
HPBL,
m
9 may, sun
sun923:00+12s41191100 0.0 1007190
02:00+11s4119392 0.0 1006166
05:00+12sse4139056 0.0 1003235
08:00+14s61493100 1.4 1002387
11:00+18s71282100 0.9 1002650
14:00+22ssw8126017 0.9 10011430
17:00+23s7116670 0.1 10001683
20:00+18sw91490100 5.6 999893
10 may, mon
mon1023:00+15s4995100 2.8 1001315
02:00+14s51194100 3.4 1000417
05:00+13s4997100 0.8 999407
08:00+12wsw61195100 10.5 1002647
11:00+14sw7107689 0.9 10051069
14:00+15ssw7107198 1.0 10071519
17:00+15ssw5871100 0.3 10071024
20:00+14s4882100 0.6 1008238
11 may, tue
tue1123:00+11s3387100 0.0 100947
02:00+10s2289100 0.0 100932
05:00+9sse2394100 0.0 100937
08:00+11se248859 0.0 1009154
11:00+16ese127041 0.4 1008533
14:00+17ese226096 1.1 10081231
17:00+16se3374100 2.3 1007636
20:00+11wnw5896100 5.6 1009314
12 may, wed
wed1223:00+9wsw2295100 0.5 101032
02:00+8sw3695100 0.5 1010124
05:00+7sw33975 0.0 101150
08:00+8wsw579598 0.0 1012394
11:00+11wsw458399 0.0 1011749
14:00+14sw456699 0.3 10101437
17:00+14wsw3462100 0.2 1010869
20:00+13sse1171100 0.2 101018
13 may, thu
thu1323:00+9se1285100 0.0 101013
02:00+7sse228923 0.0 101023
05:00+8sse248599 0.0 1010118
08:00+9s2390100 0.0 1010146
11:00+9ssw2396100 0.8 1010250
14:00+11w2281100 0.8 1010545
17:00+14sw2369100 0.3 1009943
20:00+13ssw238412 1.2 1009129